Temp
12 12 13 13 13 13 13 13 13 14 14 14 14 15 15 16 18 18 20 21 21 21 20 20 20 20 20 20 20 20 15 15 19 20 21 24 25 25 26 25 24 24 24 24 23
10 12 12 13 13 13 13 13 13 13 14 13 14 15 15 16 17 20 21 21 21 20 20 20 20 20 20 20 20 18 14 16 18 21 21 23 24 25 25 24 24 24 23 24 23
10 10 11 12 12 13 13 13 13 12 13 13 13 14 15 15 16 21 20 21 21 20 20 20 20 20 20 20 20 19 16 17 21 22 22 22 23 25 24 23 24 23 23 23 22
10 10 10 11 12 12 13 13 12 12 12 12 13 13 14 15 16 19 20 21 21 20 19 19 19 19 18 19 20 19 19 21 21 23 22 21 24 24 24 24 25 25 24 22 21
9 10 10 10 11 12 12 12 12 12 12 11 12 12 13 14 16 19 19 19 20 20 20 19 19 19 18 18 19 18 19 21 22 22 22 22 22 22 23 24 25 23 22 21 20
7 9 9 10 10 11 12 12 11 11 12 11 11 11 12 11 17 19 19 19 19 19 19 19 20 20 19 19 18 20 20 20 21 22 22 22 22 22 23 23 22 22 21 21 21
7 7 8 10 10 10 10 11 11 11 10 11 10 10 10 15 17 18 18 19 18 19 19 19 19 19 19 18 20 20 18 18 19 21 21 22 20 20 23 21 21 20 21 20 20
5 7 6 8 9 9 10 10 11 11 10 10 10 9 8 14 16 16 16 18 18 18 18 19 19 19 19 20 19 19 18 17 20 20 21 21 19 20 22 21 19 19 18 17 17
5 5 7 6 8 9 9 9 10 10 9 9 9 9 8 13 15 18 18 17 18 18 18 18 18 19 19 16 15 16 15 16 18 19 19 19 19 19 23 21 19 18 18 18 16
4 5 6 7 7 8 9 8 8 8 8 7 8 8 11 13 16 18 18 18 17 17 17 18 18 15 13 14 15 14 15 16 17 19 18 18 17 18 20 20 18 18 17 17 16
4 4 4 6 6 6 8 6 6 5 6 7 9 12 14 14 15 16 17 17 17 17 14 16 14 14 17 14 17 17 16 15 17 18 19 17 16 19 19 19 17 16 15 15 15
4 3 4 4 5 6 7 6 7 10 8 8 10 8 13 13 13 16 16 16 15 14 15 14 14 17 16 15 15 15 15 15 17 18 17 17 17 17 18 17 17 15 14 14 14
4 4 3 4 4 4 7 8 8 10 9 9 10 9 12 13 12 15 16 16 16 14 15 15 15 17 16 15 15 15 15 16 16 17 17 17 17 17 19 19 16 16 17 14 14
4 4 3 3 3 4 6 7 8 10 8 10 8 10 10 11 11 16 16 17 15 15 15 14 16 16 15 15 15 14 16 16 16 15 14 17 16 17 18 18 15 15 14 13 13
4 4 3 2 3 4 6 7 7 9 6 12 11 13 14 12 14 15 17 17 15 15 15 14 14 15 14 15 16 15 17 16 16 15 15 16 14 18 18 17 14 14 13 13 13
3 3 3 2 3 5 6 7 5 7 6 11 12 9 11 12 15 16 15 16 17 15 14 15 16 16 16 17 16 17 16 16 16 14 14 16 15 15 16 17 14 13 13 12 12
3 3 3 3 3 4 5 6 5 6 11 11 11 10 12 11 14 15 15 14 14 14 14 14 15 16 18 16 16 16 15 13 13 14 15 17 15 18 16 16 15 13 12 11 13
3 3 3 3 3 4 6 5 6 8 10 14 13 11 12 13 13 15 16 14 15 16 15 14 13 15 16 16 17 16 17 12 14 13 15 15 14 16 16 17 18 15 13 11 12
3 2 2 3 3 3 6 5 6 8 9 13 12 11 12 13 13 15 16 15 15 16 17 15 15 17 18 17 18 15 15 17 14 13 10 13 14 15 13 13 12 12 11 11 12
2 3 2 3 3 3 4 5 6 10 12 12 12 12 12 13 13 14 15 16 16 16 18 15 14 15 17 18 17 17 16 16 13 13 14 13 13 14 12 11 11 11 11 10 12
2 2 2 2 2 2 4 4 6 10 12 11 12 12 13 13 14 14 15 16 17 16 17 15 14 14 15 16 16 14 16 17 16 9 12 12 13 12 13 11 11 11 10 10 11
2 2 2 2 3 2 3 2 7 9 10 10 11 12 13 14 14 14 15 16 17 17 15 16 12 12 14 16 17 17 16 16 14 12 9 8 15 12 12 12 12 10 9 9 10
2 0 3 2 3 3 2 4 7 9 10 9 9 11 12 14 13 14 15 16 16 16 15 15 12 9 12 14 16 15 15 16 14 9 13 11 13 11 11 10 11 9 9 9 11
1 1 2 2 2 2 3 4 5 9 10 9 9 10 12 12 13 13 13 13 14 16 16 16 11 13 14 14 15 14 15 16 15 14 15 14 14 10 10 9 8 9 9 10 11
-0 1 2 2 2 3 4 5 6 6 8 9 8 9 10 10 11 12 12 10 11 11 13 14 12 13 13 14 14 15 15 15 15 15 14 16 13 10 10 10 9 9 8 8 9
0 1 3 1 3 3 4 4 6 7 7 8 8 8 9 8 10 10 10 11 11 10 10 10 9 12 12 14 15 14 14 15 15 16 16 14 13 12 12 11 9 9 8 8 8
2 4 4 3 2 3 4 5 5 8 8 10 8 9 9 8 7 6 9 8 9 9 8 9 10 9 11 11 12 11 13 14 15 14 15 14 14 12 10 9 9 8 8 8 8
Height
1497 1500 1502 1505 1507 1508 1510 1512 1512 1513 1514 1515 1514 1513 1512 1510 1509 1507 1505 1509 1508 1508 1510 1511 1511 1511 1512 1513 1514 1515 1527 1536 1521 1515 1510 1502 1500 1500 1500 1500 1501 1502 1501 1503 1504
1492 1495 1497 1500 1503 1505 1507 1509 1510 1510 1512 1512 1513 1513 1512 1509 1506 1503 1505 1503 1506 1507 1509 1510 1510 1511 1512 1513 1513 1514 1527 1524 1511 1508 1509 1505 1503 1499 1500 1500 1501 1500 1501 1502 1504
1486 1489 1492 1496 1499 1501 1503 1506 1507 1508 1508 1510 1511 1511 1511 1510 1507 1500 1500 1499 1501 1505 1507 1508 1509 1510 1511 1512 1511 1511 1518 1512 1507 1507 1508 1504 1501 1498 1498 1498 1498 1499 1499 1502 1504
1479 1483 1487 1491 1494 1497 1499 1502 1504 1505 1505 1506 1508 1509 1509 1511 1511 1498 1498 1499 1497 1502 1505 1506 1508 1509 1511 1511 1509 1512 1508 1508 1505 1505 1505 1502 1499 1495 1496 1495 1495 1496 1496 1499 1503
1474 1480 1483 1486 1489 1492 1495 1498 1500 1502 1502 1504 1505 1506 1508 1507 1499 1500 1498 1501 1499 1499 1501 1504 1506 1508 1509 1507 1507 1507 1504 1504 1503 1502 1502 1500 1498 1495 1493 1493 1493 1495 1497 1499 1503
1472 1472 1473 1479 1484 1487 1491 1494 1497 1498 1500 1501 1502 1503 1505 1503 1496 1497 1498 1497 1501 1500 1499 1502 1504 1505 1506 1506 1507 1502 1501 1501 1499 1498 1499 1499 1497 1495 1493 1492 1492 1493 1496 1498 1500
1466 1467 1467 1472 1478 1483 1487 1490 1493 1495 1497 1498 1499 1498 1497 1486 1491 1491 1493 1494 1497 1499 1500 1501 1503 1504 1504 1503 1502 1501 1503 1498 1495 1494 1495 1495 1498 1496 1492 1492 1491 1493 1494 1497 1499
1460 1463 1464 1465 1470 1477 1482 1485 1489 1491 1493 1494 1496 1495 1485 1482 1487 1487 1490 1491 1493 1496 1498 1501 1501 1502 1503 1502 1501 1503 1504 1508 1491 1492 1489 1493 1500 1490 1490 1491 1493 1494 1495 1497 1499
1454 1457 1459 1460 1463 1470 1477 1482 1485 1488 1490 1491 1494 1492 1482 1477 1475 1482 1485 1489 1492 1494 1495 1499 1500 1500 1501 1505 1512 1507 1517 1509 1497 1488 1489 1491 1494 1485 1487 1488 1490 1494 1493 1495 1496
1448 1451 1453 1455 1457 1463 1471 1477 1480 1484 1486 1487 1489 1494 1478 1468 1469 1472 1479 1485 1489 1491 1494 1496 1498 1498 1502 1507 1519 1512 1513 1506 1500 1487 1487 1490 1491 1482 1480 1482 1483 1487 1491 1492 1492
1442 1445 1446 1448 1453 1456 1463 1470 1480 1481 1475 1467 1468 1468 1463 1463 1466 1466 1470 1478 1486 1489 1490 1490 1497 1497 1482 1493 1495 1499 1504 1505 1487 1485 1486 1486 1486 1476 1471 1476 1481 1485 1487 1489 1492
1436 1440 1441 1444 1447 1453 1450 1450 1453 1460 1464 1464 1463 1467 1463 1464 1465 1461 1466 1472 1479 1482 1483 1490 1486 1477 1485 1490 1495 1499 1503 1497 1486 1481 1488 1483 1482 1473 1470 1468 1470 1476 1482 1485 1488
1428 1432 1436 1440 1442 1444 1445 1444 1455 1457 1457 1451 1450 1455 1461 1462 1462 1455 1460 1463 1468 1477 1475 1477 1475 1479 1483 1489 1494 1494 1497 1493 1495 1483 1483 1483 1481 1473 1465 1465 1469 1473 1473 1480 1481
1422 1423 1432 1434 1441 1440 1441 1445 1452 1460 1463 1441 1439 1434 1447 1459 1453 1446 1454 1459 1465 1467 1474 1476 1473 1476 1479 1484 1485 1494 1478 1487 1489 1494 1503 1479 1492 1471 1463 1464 1467 1471 1474 1477 1481
1414 1420 1425 1425 1429 1431 1433 1442 1443 1456 1467 1417 1416 1422 1425 1439 1433 1435 1446 1452 1454 1458 1465 1458 1463 1469 1475 1471 1474 1481 1475 1483 1483 1488 1491 1485 1493 1464 1459 1462 1467 1468 1470 1474 1478
1406 1412 1419 1418 1425 1426 1429 1435 1441 1441 1439 1406 1401 1410 1419 1422 1425 1431 1436 1446 1449 1455 1453 1453 1455 1458 1456 1460 1468 1467 1477 1481 1481 1487 1492 1478 1484 1468 1461 1452 1457 1460 1464 1467 1473
1396 1404 1412 1416 1409 1417 1427 1424 1430 1413 1389 1391 1394 1401 1400 1412 1422 1418 1426 1436 1440 1456 1453 1455 1452 1449 1451 1462 1462 1469 1481 1502 1500 1494 1479 1464 1475 1452 1444 1442 1442 1448 1456 1462 1469
1387 1394 1396 1399 1404 1409 1415 1409 1400 1388 1377 1368 1383 1399 1399 1403 1407 1406 1416 1423 1423 1425 1440 1451 1460 1443 1440 1442 1449 1455 1464 1488 1492 1489 1471 1462 1461 1446 1433 1433 1435 1439 1445 1457 1466
1380 1383 1387 1389 1397 1403 1400 1389 1383 1380 1377 1372 1378 1390 1394 1388 1389 1402 1396 1396 1404 1407 1421 1438 1437 1425 1425 1433 1440 1452 1458 1454 1471 1474 1488 1465 1447 1438 1434 1433 1435 1439 1446 1451 1459
1367 1371 1371 1382 1393 1395 1386 1370 1375 1371 1364 1375 1375 1375 1381 1379 1384 1386 1393 1379 1391 1394 1403 1417 1434 1420 1421 1431 1433 1436 1441 1463 1466 1475 1469 1456 1454 1442 1439 1438 1437 1439 1444 1450 1456
1358 1358 1357 1374 1387 1380 1366 1370 1368 1365 1363 1369 1370 1372 1367 1367 1370 1370 1371 1375 1378 1387 1400 1410 1420 1424 1419 1419 1427 1439 1439 1439 1451 1473 1464 1463 1444 1423 1423 1427 1429 1434 1440 1444 1451
1343 1343 1346 1364 1373 1361 1365 1368 1364 1361 1365 1361 1362 1364 1359 1361 1367 1369 1363 1367 1367 1380 1395 1391 1417 1427 1418 1408 1409 1412 1418 1426 1443 1455 1462 1466 1420 1418 1418 1421 1427 1432 1439 1444 1450
1324 1337 1340 1351 1351 1352 1359 1358 1357 1358 1359 1362 1359 1363 1357 1353 1365 1360 1362 1362 1362 1371 1377 1392 1408 1434 1426 1417 1410 1416 1419 1419 1427 1444 1429 1452 1429 1419 1419 1425 1431 1434 1440 1445 1452
1313 1322 1327 1340 1343 1348 1353 1350 1350 1352 1350 1359 1359 1361 1357 1354 1351 1355 1362 1362 1360 1366 1371 1379 1396 1392 1395 1402 1405 1415 1412 1411 1418 1424 1420 1406 1416 1425 1425 1428 1431 1436 1440 1445 1450
1290 1299 1302 1319 1335 1339 1342 1337 1335 1343 1350 1354 1361 1358 1357 1361 1356 1355 1356 1363 1365 1367 1372 1373 1386 1389 1392 1394 1397 1396 1397 1402 1401 1398 1409 1395 1410 1416 1417 1421 1422 1427 1438 1443 1447
1273 1287 1299 1310 1323 1330 1333 1334 1330 1335 1342 1343 1351 1353 1355 1361 1356 1357 1353 1357 1358 1370 1370 1374 1390 1387 1393 1390 1390 1391 1388 1387 1388 1392 1391 1398 1400 1400 1408 1418 1426 1429 1436 1442 1446
1266 1279 1289 1301 1316 1325 1323 1327 1328 1325 1329 1333 1337 1349 1353 1356 1356 1354 1347 1350 1352 1358 1372 1372 1384 1392 1389 1393 1397 1397 1377 1379 1380 1383 1382 1387 1390 1396 1407 1411 1415 1422 1429 1435 1441
Wind_Speed
25 25 26 27 27 25 24 22 20 20 19 18 17 16 16 17 18 19 20 9 7 8 7 5 3 3 3 1 4 4 4 1 4 2 6 9 1 3 6 9 8 7 10 9 20
28 27 26 28 28 26 26 24 22 20 20 19 18 18 17 18 20 23 17 15 12 8 12 10 5 3 1 1 2 4 4 9 5 2 6 16 6 3 1 2 3 10 6 17 21
30 30 28 28 29 28 26 26 24 22 20 20 18 17 16 15 20 10 8 11 13 13 9 7 6 2 2 1 4 3 5 5 9 14 13 10 11 5 2 3 5 14 19 24 23
34 32 30 28 28 29 28 27 25 24 21 20 18 17 14 11 6 2 1 3 11 11 11 11 9 3 2 3 5 2 8 9 8 15 8 5 11 4 8 6 6 16 26 28 24
28 33 30 30 29 29 29 27 27 25 22 20 19 17 14 11 22 6 1 1 6 8 9 11 13 8 3 3 4 5 4 9 8 15 14 14 12 8 7 8 10 22 25 26 23
16 25 31 32 31 28 28 29 27 25 23 21 19 16 14 10 17 21 20 9 9 7 7 10 7 7 5 5 5 9 15 15 11 12 9 6 6 2 6 19 24 27 27 27 27
33 21 29 34 31 29 27 28 28 25 23 22 19 16 20 33 12 11 16 20 15 10 9 9 7 5 0 4 7 5 7 7 6 6 6 7 5 5 9 26 30 30 30 28 26
35 37 18 26 29 30 27 27 27 25 23 21 20 16 17 29 29 26 14 19 18 16 14 10 8 8 5 6 5 2 2 4 1 3 5 8 9 8 12 28 27 30 32 30 31
33 37 37 22 28 28 27 26 25 25 23 19 18 14 15 13 28 31 26 21 19 17 16 10 6 7 3 3 5 1 6 6 9 7 3 6 6 8 15 28 29 30 33 30 27
31 31 35 42 17 27 27 25 24 24 22 17 15 3 22 19 26 24 32 26 22 13 13 12 8 3 1 4 8 6 5 5 9 4 5 4 9 10 20 24 32 37 33 32 29
32 32 31 41 31 20 30 28 15 10 27 17 14 20 8 14 8 11 21 27 25 12 7 9 5 10 23 8 1 2 5 7 9 2 1 8 8 16 14 11 22 26 32 34 30
34 31 28 29 37 22 39 42 35 9 9 41 29 24 28 4 6 16 17 23 16 12 7 2 15 22 6 9 7 6 5 18 15 10 4 11 11 9 4 7 27 34 31 35 33
33 33 29 31 28 28 44 50 31 8 2 9 39 44 30 22 13 11 25 22 14 12 16 16 3 12 8 6 7 10 12 16 12 6 4 7 9 6 3 4 21 30 39 33 39
34 33 30 25 25 29 36 47 24 21 4 8 14 18 39 20 10 33 22 22 7 20 14 13 16 9 12 9 13 8 12 12 9 2 4 5 6 9 6 4 13 24 28 35 36
36 35 31 27 25 23 25 40 30 22 6 9 17 15 31 36 15 22 29 25 14 11 11 12 16 23 12 13 13 9 5 11 13 10 3 6 5 10 4 9 7 16 28 36 40
38 36 30 30 32 24 26 26 24 8 14 6 16 15 17 24 19 11 27 19 13 9 7 13 16 13 19 21 12 2 3 5 3 4 12 14 9 5 8 9 4 14 26 37 43
40 37 35 36 39 31 28 38 6 9 7 10 8 17 23 14 20 17 19 20 14 11 19 7 18 3 6 7 10 7 5 3 3 5 10 9 8 17 6 8 10 18 28 36 46
40 39 38 39 36 28 37 8 13 13 22 4 13 20 19 14 20 27 20 23 26 13 10 14 8 20 11 9 7 17 17 6 8 7 9 8 8 6 8 10 21 28 38 38 44
39 41 41 40 38 37 35 11 12 13 23 4 18 19 14 16 11 22 30 33 29 29 18 14 15 6 22 8 11 7 13 17 6 3 1 5 5 5 5 3 10 22 32 38 46
46 44 46 43 38 36 14 12 15 8 13 30 13 14 18 24 12 22 25 23 28 31 21 6 1 8 15 15 13 12 8 4 1 9 13 5 6 6 3 6 10 17 27 34 44
48 24 33 45 38 24 11 8 16 23 8 21 32 10 8 15 16 25 18 8 34 28 23 5 4 3 8 17 21 7 11 7 10 6 7 1 6 6 15 16 19 17 28 36 43
47 13 26 37 16 4 14 7 31 29 23 4 3 5 12 16 18 21 19 15 23 23 29 29 5 7 11 3 16 23 23 24 12 8 5 3 14 2 8 12 17 22 27 34 42
33 15 29 40 16 12 6 20 13 19 21 6 3 6 4 14 13 13 14 7 20 23 24 18 8 3 3 9 9 6 14 15 11 4 19 6 5 5 9 9 19 25 28 36 44
21 8 13 36 26 17 9 13 17 33 23 12 2 3 2 4 6 15 9 1 9 18 21 25 5 20 21 6 10 12 12 20 16 14 13 24 11 2 7 11 14 24 31 41 44
16 7 13 13 16 18 15 9 27 11 16 26 10 11 6 5 3 5 7 5 4 2 9 14 12 10 11 16 6 14 24 21 27 26 21 22 15 11 15 18 27 36 33 37 41
12 9 18 5 18 22 22 10 28 18 19 21 23 18 14 5 5 6 7 4 7 1 6 5 3 15 10 15 14 14 18 25 25 22 26 10 12 10 18 17 21 31 33 31 34
32 23 26 10 12 19 14 24 20 22 12 21 26 16 19 6 2 5 9 7 4 10 5 12 7 5 11 4 1 13 22 22 19 15 19 22 10 7 9 17 28 31 33 34 38
Wind_Direction
255 257 256 253 254 254 254 255 255 260 265 269 275 278 283 283 281 281 272 282 278 234 218 216 256 249 290 267 213 164 73 183 257 231 286 332 304 183 134 141 197 198 177 183 167
258 254 255 253 251 251 253 254 255 256 261 267 271 277 285 292 289 274 272 268 258 237 224 242 252 234 267 304 219 142 131 206 232 294 328 310 304 291 205 147 168 210 189 168 172
255 253 253 255 253 250 250 252 253 254 256 263 267 274 283 297 308 278 255 242 229 221 229 216 232 260 258 260 232 199 178 226 276 290 298 279 281 214 247 271 189 189 159 167 178
244 246 250 252 252 251 247 248 250 252 252 257 265 269 274 279 256 155 100 214 185 202 223 228 237 195 206 203 238 243 216 253 282 301 309 259 265 225 202 237 275 195 177 174 179
259 244 251 249 250 250 249 245 248 250 252 255 260 265 266 251 244 236 92 244 190 202 219 221 202 180 193 207 273 205 252 266 272 295 294 296 252 229 220 195 180 171 176 176 180
280 238 236 248 249 249 247 248 244 246 249 253 256 259 254 247 252 244 248 239 245 219 188 185 196 198 267 238 178 282 287 287 290 278 265 252 259 237 197 167 162 169 170 172 177
259 266 240 236 242 246 246 244 245 242 246 249 254 254 248 240 236 244 226 223 219 215 220 198 223 233 249 302 299 271 310 314 244 241 217 200 285 223 204 174 164 161 166 172 175
274 260 266 238 235 241 242 241 241 241 240 244 250 255 253 256 246 245 220 214 210 217 233 228 257 263 237 275 324 22 272 294 267 149 251 177 256 235 209 177 174 169 166 167 168
268 266 257 261 232 232 235 237 235 236 236 238 246 243 269 251 240 230 229 226 212 219 224 233 248 220 211 107 356 338 250 249 290 216 203 180 270 267 272 196 178 180 175 174 164
269 265 267 252 249 221 224 228 223 226 224 225 226 239 250 241 239 235 226 221 221 222 226 223 216 151 111 123 225 202 226 251 248 205 160 222 260 273 275 201 180 184 179 178 171
266 266 267 261 255 246 216 199 194 221 210 196 203 208 293 252 192 231 220 211 213 219 173 186 171 202 222 194 7 227 232 259 257 174 336 264 269 282 278 201 176 177 178 178 170
265 262 258 259 262 248 229 196 201 206 203 229 226 243 230 244 298 214 195 182 185 199 149 145 217 220 113 181 209 231 245 259 288 262 181 277 276 274 228 183 182 176 176 177 168
261 259 256 252 268 259 210 214 204 203 289 219 225 227 233 235 241 223 188 189 193 191 195 208 218 200 175 167 186 228 228 255 245 318 275 284 285 271 242 159 180 186 188 177 171
252 259 252 248 252 252 222 217 190 208 284 251 198 234 220 227 264 228 202 182 197 205 205 239 223 203 208 207 198 221 223 241 248 286 248 166 269 270 254 185 180 179 178 172 171
248 248 246 229 230 243 234 221 191 165 222 207 194 200 195 194 142 217 198 193 197 167 173 213 186 210 208 210 189 223 175 223 234 242 220 261 254 246 218 230 184 186 179 178 177
244 241 241 233 227 226 221 212 200 175 223 256 149 173 156 201 200 171 185 205 205 192 243 219 197 199 213 226 191 124 255 257 246 221 253 240 217 207 214 221 174 189 182 175 178
239 239 231 231 222 227 222 194 213 201 146 195 181 173 179 176 193 180 181 190 181 179 211 188 220 186 168 191 199 171 143 277 269 222 250 208 230 241 232 219 191 183 176 176 178
237 236 231 232 225 207 208 195 206 222 193 103 150 169 188 157 200 188 186 198 208 193 182 201 213 204 195 196 185 198 197 185 223 232 257 186 232 233 234 217 218 191 177 170 173
234 233 228 227 226 213 218 215 194 205 195 245 146 170 201 191 162 183 204 203 192 196 195 197 232 184 198 185 172 190 205 218 245 178 13 232 290 308 327 202 149 153 161 168 176
223 217 220 222 221 215 237 200 208 196 179 215 209 184 191 183 164 189 191 210 207 204 202 191 202 206 202 199 212 216 151 188 216 234 242 226 246 234 251 177 159 157 167 168 175
214 217 210 216 216 218 218 209 217 197 214 198 220 197 198 182 197 190 194 227 199 197 199 139 152 314 137 202 193 186 211 211 202 171 225 273 253 212 193 182 176 170 169 165 171
204 218 191 196 208 188 216 195 219 212 241 286 147 267 192 182 201 194 205 199 200 187 190 205 160 203 204 210 204 212 213 209 211 207 230 195 248 290 209 185 167 161 161 162 165
199 196 181 189 215 206 182 221 235 204 221 206 259 231 253 189 196 195 198 195 175 185 189 179 211 131 325 272 238 203 217 211 212 131 220 203 255 333 147 146 153 153 157 158 162
183 174 155 196 211 203 193 202 200 208 210 206 309 268 246 245 216 187 172 185 166 190 173 166 163 213 221 224 190 227 215 221 210 227 220 230 233 136 154 149 152 165 162 164 166
177 175 154 182 205 203 201 203 197 193 221 202 218 248 228 255 180 178 180 121 47 146 148 169 217 204 215 232 226 215 220 221 222 225 214 233 225 191 183 177 180 172 167 168 171
145 156 170 132 173 198 199 203 195 186 183 191 214 213 232 213 231 188 126 195 167 12 153 156 235 216 233 215 220 233 226 222 226 227 235 219 229 171 194 161 157 174 173 171 168
163 153 164 181 187 199 202 211 209 194 199 203 204 205 217 209 81 344 95 85 152 147 145 163 158 142 231 192 156 255 220 213 222 224 222 227 203 150 145 171 179 174 175 171 172